Weather in Seserlig

Russia / Tyva Republic     51°52′29″N   94°15′45″E
temp.,
°C
wind,
m/s
gust,
m/s
humid.,
%
clouds,
%
prec.,
mm/h
press.,
hPa
HPBL,
m
5 march, fri
fri501:00−18nne01910 0.0 103320
04:00−18n019638 0.0 103220
07:00−19wsw019765 0.0 103120
10:00−14ese118835 0.0 102990
13:00−11ese117768 0.0 1026235
16:00−9wsw1169100 0.0 1024208
19:00−11sw1279100 0.0 102721
22:00−11sse1286100 0.0 103123
6 march, sat
sat601:00−13wsw1196100 0.3 103522
04:00−17nne1110093 0.1 103520
07:00−16nnw119796 0.1 103620
10:00−12sse1190100 0.0 103386
13:00−10se1183100 0.0 1029244
16:00−8s0180100 0.0 1026183
19:00−13w017998 0.0 102721
22:00−13sw1182100 0.0 102721
7 march, sun
sun701:00−15wsw0189100 0.0 102720
04:00−16e009589 0.0 102620
07:00−17w019895 0.0 102820
10:00−13sse1192100 0.0 102693
13:00−10se1186100 0.0 1025210
16:00−8se1083100 0.0 1024179
19:00−10wsw1185100 0.0 102721
22:00−12wnw0080100 0.0 102921
8 march, mon
mon801:00−15ssw118187 0.0 103021
04:00−16nne11893 0.0 103020
07:00−16nnw019537 0.0 103120
10:00−11s119189 0.0 102968
13:00−9se118478 0.0 1026193
16:00−7sse11830 0.0 1024178
19:00−12w11860 0.0 102521
22:00−14w01840 0.0 102621
9 march, tue
tue901:00−14wsw019133 0.0 102620
04:00−14s0192100 0.0 102720
07:00−13e0089100 0.0 103020
10:00−11ssw1189100 0.0 103095
13:00−8ese118688 0.0 1029233
16:00−6sse118468 0.0 1028224
19:00−11n118651 0.0 102921
22:00−12wnw0078100 0.0 103021